Weather History for KORH - March, 2013

Change the Weather History Date:

Saturday, March 9, 2013

  Actual Average Record
Temperature  
Mean Temperature 40 °F 32 °F  
Max Temperature 50 °F 40 °F 74 °F (2000)
Min Temperature 30 °F 24 °F -6 °F (1943)
Degree Days  
Heating Degree Days 25 33  
Month to date heating degree days 287 305  
Since 1 July heating degree days 4724 5142  
Cooling Degree Days 0 0  
Month to date cooling degree days 0 0  
Year to date cooling degree days 0 0  
Moisture  
Dew Point 17 °F    
Average Humidity 51    
Maximum Humidity 78    
Minimum Humidity 23    
Precipitation  
Precipitation 0.00 in 0.12 in 3.73 in (1998)
Month to date precipitation 1.41 1.14  
Year to date precipitation 8.29 7.86  
Sea Level Pressure  
Sea Level Pressure 30.24 in    
Wind  
Wind Speed 9 mph (NE)    
Max Wind Speed 18 mph    
Max Gust Speed 27 mph    
Visibility 10 miles    
Events      
T = Trace of Precipitation, MM = Missing Value Source: NWS Daily Summary

Daily Weather History Graph

Daily Weather History Graph

Search for Another Location

Airport or City:

Trip Planner

Search our weather history database for the weather conditions in past years. The results will help you decide how hot, cold, wet, or windy it might be!

Date:

Astronomy

Mar. 09, 2013 Rise Set
Actual Time 6:09 AM EST 5:47 PM EST
Civil Twilight 5:41 AM EST 6:15 PM EST
Nautical Twilight 5:08 AM EST 6:47 PM EST
Astronomical Twilight 4:36 AM EST 7:20 PM EST
Moon 4:33 AM EST (3/9) 3:44 PM EST (3/9)
Length of Visible Light 12h 33m
Length of Day
11h 38m
Waning Crescent, 5% of the Moon is Illuminated
Mar 9
Waning Crescent
Mar 11
New
Mar 19
First Quarter
Mar 27
Full
Apr 3
Last Quarter

Hourly Weather History & Observations

Time (EST) Temp. Windchill Dew Point Humidity Pressure Visibility Wind Dir Wind Speed Gust Speed Precip Events Conditions
12:54 AM 36.0 °F 26.7 °F 16.0 °F 44% 30.17 in 10.0 mi North 15.0 mph 23.0 mph N/A   Clear
1:54 AM 35.1 °F 25.9 °F 16.0 °F 46% 30.16 in 10.0 mi North 13.8 mph 21.9 mph N/A   Clear
2:54 AM 35.1 °F 25.9 °F 15.1 °F 44% 30.14 in 10.0 mi NNE 13.8 mph 24.2 mph N/A   Clear
3:54 AM 34.0 °F 25.5 °F 14.0 °F 44% 30.15 in 10.0 mi North 11.5 mph - N/A   Clear
4:54 AM 34.0 °F 25.0 °F 14.0 °F 44% 30.17 in 10.0 mi NNE 12.7 mph - N/A   Clear
5:54 AM 33.1 °F 23.4 °F 14.0 °F 46% 30.19 in 10.0 mi North 13.8 mph - N/A   Clear
6:54 AM 34.0 °F 25.5 °F 12.9 °F 42% 30.21 in 10.0 mi North 11.5 mph - N/A   Clear
7:54 AM 36.0 °F 28.5 °F 12.9 °F 39% 30.23 in 10.0 mi NNE 10.4 mph - N/A   Clear
8:54 AM 39.0 °F 31.0 °F 12.0 °F 33% 30.23 in 10.0 mi NNE 13.8 mph 24.2 mph N/A   Clear
9:54 AM 39.9 °F 32.1 °F 12.9 °F 33% 30.23 in 10.0 mi NE 13.8 mph 20.7 mph N/A   Clear
10:25 AM 41.0 °F 33.5 °F 12.0 °F 31% 30.21 in 2.5 mi NE 13.8 mph 21.9 mph N/A   Haze
10:34 AM 42.1 °F 37.1 °F 12.9 °F 31% 30.21 in 10.0 mi NE 8.1 mph 18.4 mph N/A   Clear
10:54 AM 42.1 °F 36.6 °F 16.0 °F 35% 30.24 in 10.0 mi ENE 9.2 mph - N/A   Clear
11:54 AM 44.1 °F 38.6 °F 14.0 °F 30% 30.25 in 10.0 mi NE 10.4 mph - N/A   Clear
12:54 PM 44.1 °F 40.8 °F 16.0 °F 32% 30.23 in 10.0 mi East 5.8 mph - N/A   Clear
1:54 PM 46.0 °F 43.1 °F 16.0 °F 30% 30.23 in 10.0 mi East 5.8 mph - N/A   Clear
2:54 PM 48.0 °F - 15.1 °F 27% 30.22 in 10.0 mi NE 5.8 mph - N/A   Clear
3:54 PM 48.9 °F - 12.9 °F 24% 30.23 in 10.0 mi NNE 6.9 mph - N/A   Clear
4:54 PM 48.0 °F - 12.9 °F 24% 30.25 in 10.0 mi ENE 6.9 mph - N/A   Clear
5:54 PM 41.0 °F 37.1 °F 25.0 °F 53% 30.28 in 10.0 mi East 5.8 mph - N/A   Clear
6:54 PM 37.0 °F 33.3 °F 27.0 °F 67% 30.30 in 10.0 mi East 4.6 mph - N/A   Clear
7:54 PM 34.0 °F 28.0 °F 27.0 °F 75% 30.32 in 10.0 mi ENE 6.9 mph - N/A   Clear
8:54 PM 33.1 °F 30.0 °F 27.0 °F 78% 30.33 in 10.0 mi NE 3.5 mph - N/A   Clear
9:54 PM 33.1 °F 27.7 °F 26.1 °F 75% 30.32 in 10.0 mi NE 5.8 mph - N/A   Clear
10:54 PM 32.0 °F 26.4 °F 26.1 °F 79% 30.33 in 10.0 mi NE 5.8 mph - N/A   Clear
11:54 PM 30.9 °F 24.3 °F 27.0 °F 85% 30.34 in 10.0 mi NNE 6.9 mph - N/A   Clear